Weather History for Blytheville Muni Airport, AR

Change the Weather History Date:

Thursday, May 9, 2013

  Actual Average Record
Temperature  
Mean Temperature 72 °F -  
Max Temperature 80 °F 79 °F 93 °F (1986)
Min Temperature 63 °F 57 °F 42 °F (1960)
Cooling Degree Days 6    
Growing Degree Days 22 (Base 50)    
Moisture  
Dew Point 59 °F    
Average Humidity 68    
Maximum Humidity 84    
Minimum Humidity 47    
Precipitation  
Precipitation 0.00 in - - ()
Sea Level Pressure  
Sea Level Pressure 29.99 in    
Wind  
Wind Speed 8 mph (SSW)    
Max Wind Speed 20 mph    
Max Gust Speed 29 mph    
Visibility 10 miles    
Events      
Averages and records for this station are not official NWS values.
T = Trace of Precipitation, MM = Missing Value Source: NWS Daily Summary

Daily Weather History Graph

Daily Weather History Graph

Search for Another Location

Airport:

Trip Planner

Search our weather history database for the weather conditions in past years. The results will help you decide how hot, cold, wet, or windy it might be!

Date:

Astronomy

May. 09, 2013 Rise Set
Actual Time 5:58 AM CDT 7:53 PM CDT
Civil Twilight 5:30 AM CDT 8:21 PM CDT
Nautical Twilight 4:56 AM CDT 8:55 PM CDT
Astronomical Twilight 4:20 AM CDT 9:32 PM CDT
Moon 5:42 AM CDT (5/9) 7:48 PM CDT (5/9)
Length of Visible Light 14h 51m
Length of Day
13h 54m
Waning Crescent, 0% of the Moon is Illuminated
May 9
Waning Crescent
May 9
New
May 17
First Quarter
May 24
Full
May 31
Last Quarter

Hourly Weather History & Observations

Time (CDT) Temp. Heat Index Dew Point Humidity Pressure Visibility Wind Dir Wind Speed Gust Speed Precip Events Conditions
12:53 AM 66.0 °F - 57.0 °F 73% 30.02 in 10.0 mi South 4.6 mph - N/A   Clear
1:53 AM 66.0 °F - 57.9 °F 75% 30.01 in 10.0 mi South 4.6 mph - 0.00 in   Scattered Clouds
2:53 AM 64.9 °F - 59.0 °F 81% 30.01 in 10.0 mi South 3.5 mph - N/A   Scattered Clouds
3:53 AM 64.0 °F - 57.9 °F 80% 30.00 in 10.0 mi South 4.6 mph - N/A   Clear
4:53 AM 64.0 °F - 57.9 °F 80% 30.00 in 10.0 mi South 4.6 mph - N/A   Clear
5:53 AM 63.0 °F - 57.9 °F 84% 30.01 in 10.0 mi South 5.8 mph - N/A   Clear
6:53 AM 64.0 °F - 57.9 °F 80% 30.01 in 10.0 mi SSE 6.9 mph - N/A   Clear
7:53 AM 66.9 °F - 59.0 °F 76% 30.03 in 10.0 mi South 8.1 mph - N/A   Partly Cloudy
8:53 AM 70.0 °F - 60.1 °F 71% 30.04 in 10.0 mi SSW 9.2 mph - N/A   Partly Cloudy
9:53 AM 72.0 °F - 61.0 °F 68% 30.05 in 10.0 mi SSW 10.4 mph - N/A   Mostly Cloudy
10:53 AM 75.0 °F - 62.1 °F 64% 30.06 in 10.0 mi SW 13.8 mph 21.9 mph N/A   Clear
12:53 PM 75.9 °F - 59.0 °F 56% 30.02 in 10.0 mi SSW 18.4 mph 24.2 mph N/A   Clear
1:53 PM 78.1 °F - 60.1 °F 54% 29.99 in 10.0 mi South 19.6 mph 25.3 mph N/A   Clear
3:53 PM 80.1 °F 80.6 °F 57.9 °F 47% 29.95 in 10.0 mi SSW 19.6 mph 28.8 mph N/A   Clear
4:53 PM 79.0 °F - 59.0 °F 50% 29.96 in 10.0 mi SW 19.6 mph 28.8 mph N/A   Clear
5:53 PM 77.0 °F - 61.0 °F 58% 29.95 in 10.0 mi SSW 11.5 mph 23.0 mph N/A   Scattered Clouds
6:53 PM 75.9 °F - 62.1 °F 62% 29.94 in 10.0 mi SSW 9.2 mph - N/A   Scattered Clouds
7:53 PM 73.0 °F - 60.1 °F 64% 29.96 in 10.0 mi SSW 8.1 mph - N/A   Mostly Cloudy
8:53 PM 72.0 °F - 59.0 °F 64% 29.96 in 10.0 mi SSW 9.2 mph - N/A   Overcast
9:53 PM 71.1 °F - 61.0 °F 70% 29.96 in 10.0 mi SW 8.1 mph - N/A   Overcast
10:53 PM 70.0 °F - 61.0 °F 73% 29.96 in 10.0 mi SSW 6.9 mph - N/A   Mostly Cloudy